Theta_e
305 299 297 297 299 300 300 300 299 299 299 297 298 297 295 296 297 299 299 299 300 298 297 299 299 299 301 302 304 305 306 305 306 305 305 306 306 307 307 308 309 309 310 314 313 312 311 312 313 313 313 313 313 314 314 313 313 313 312 311 311 310 309 309 308 307 306 306 305 305 306 305 304 302 302 302 302 302 304 304 305 305 305 305 306 307
302 297 298 300 300 302 301 301 300 298 299 297 297 297 296 298 294 299 299 299 300 297 297 300 299 300 301 302 303 304 304 303 304 305 305 306 306 307 308 308 309 310 314 312 311 310 310 310 312 312 312 311 311 312 312 312 312 312 311 310 310 307 307 309 310 309 308 308 308 307 306 304 302 300 300 300 301 300 301 302 302 303 304 304 305 306
297 295 299 300 301 301 301 300 299 299 297 298 297 297 296 296 300 299 298 297 299 297 296 299 297 298 300 301 303 303 303 305 305 306 305 305 306 307 308 309 309 311 312 310 309 309 309 310 311 312 311 312 312 312 312 312 312 311 311 311 311 309 308 308 309 309 308 307 305 306 305 303 300 299 299 299 298 299 300 299 300 302 303 303 304 305
294 298 300 301 300 299 298 299 299 299 299 297 297 295 293 301 294 292 297 298 298 297 296 297 295 297 300 302 303 305 305 305 307 307 307 308 306 306 307 308 309 310 311 308 308 307 307 309 310 311 311 311 312 312 311 311 311 311 310 310 309 308 308 308 307 307 306 303 301 300 300 299 300 297 296 296 296 297 298 298 299 299 300 302 303 305
296 298 298 300 299 298 297 298 297 296 295 299 299 297 295 297 297 294 295 298 299 298 298 297 297 298 301 301 303 306 308 306 307 307 307 308 310 310 312 312 312 309 310 310 308 307 306 307 309 310 310 311 310 311 311 310 310 310 310 309 309 307 308 308 306 303 301 300 298 297 297 297 296 297 299 295 294 295 296 297 298 297 299 300 301 303
297 298 300 298 298 297 298 296 297 298 294 297 300 298 297 299 296 297 299 297 294 294 296 298 290 292 302 301 303 304 302 302 305 305 306 307 308 309 308 309 311 312 311 309 309 307 307 307 308 310 310 310 311 310 311 311 310 310 310 310 308 308 307 307 304 302 301 299 298 297 297 297 297 295 295 296 295 294 294 296 297 297 298 299 299 301
297 296 299 298 298 298 298 296 299 299 295 294 295 300 300 298 298 297 296 297 290 289 298 299 289 286 296 296 300 302 302 302 304 306 306 307 307 309 309 309 309 309 309 310 310 309 307 307 308 309 309 310 310 311 311 311 310 310 309 309 308 307 306 305 303 302 300 299 299 299 300 301 300 298 297 300 297 295 295 296 295 296 297 298 299 300
296 296 298 300 298 298 297 295 299 299 295 293 297 300 299 299 297 298 297 297 293 299 299 298 296 289 289 296 300 301 301 301 302 304 305 306 307 309 308 309 309 309 308 308 308 308 308 307 307 308 309 310 310 311 311 310 310 309 308 308 308 306 304 302 301 301 301 300 299 300 302 303 304 303 300 298 296 296 294 294 294 295 296 297 298 299
297 295 297 297 298 296 295 298 302 301 296 297 297 301 299 298 300 298 298 295 296 294 290 295 299 291 290 297 301 301 298 299 300 301 303 305 309 308 308 308 309 308 308 308 307 307 307 307 307 308 309 310 310 310 310 309 309 309 309 308 307 305 303 302 301 300 300 301 301 301 303 302 304 302 298 296 295 293 294 293 294 294 295 296 297 298
298 298 298 299 297 295 298 296 300 300 296 297 300 301 300 301 300 299 296 295 294 291 287 293 296 288 289 296 296 299 298 298 299 301 303 306 308 308 308 308 305 305 305 306 306 307 307 307 308 309 310 310 310 310 311 310 309 308 308 307 305 304 303 302 300 300 300 301 301 302 303 303 300 297 295 295 294 293 293 293 293 293 294 295 295 296
298 299 298 299 297 299 297 297 298 299 300 301 302 301 299 299 298 297 297 294 291 286 289 296 295 292 286 295 296 294 297 299 301 302 304 307 309 307 306 306 307 304 304 304 304 305 306 307 308 308 309 309 310 310 310 309 308 307 307 306 304 303 302 300 299 299 299 300 302 303 303 303 300 297 295 293 292 292 293 293 293 293 293 294 294 295
299 297 298 299 297 300 300 297 300 300 302 303 300 296 297 295 296 294 292 292 285 284 290 291 295 295 285 291 298 300 302 303 302 301 302 305 306 307 307 305 304 304 303 303 303 303 304 305 306 307 308 308 309 309 308 308 307 307 306 305 304 302 301 300 299 298 298 299 300 300 301 302 299 297 295 295 295 293 293 294 293 293 293 293 294 294
295 297 300 297 299 299 300 297 296 299 299 301 297 295 288 287 288 285 289 284 285 284 289 290 292 290 290 294 299 300 301 302 303 304 304 305 306 308 307 306 305 304 303 303 303 303 303 304 304 306 307 308 308 307 307 307 307 306 306 305 303 301 301 299 298 297 297 298 298 298 299 298 297 296 296 296 295 295 294 294 293 292 292 292 293 293
293 299 297 298 297 298 301 293 293 291 295 296 293 291 287 283 283 281 285 287 287 288 288 291 294 287 293 296 300 300 302 303 304 305 307 307 307 307 309 308 305 304 304 303 304 303 303 304 305 306 307 308 308 307 307 306 306 305 304 304 302 301 300 299 298 297 297 297 298 297 297 297 296 296 295 295 295 294 295 295 294 293 293 292 293 293
286 288 294 296 292 300 300 298 298 295 295 295 299 296 290 288 285 281 284 282 284 286 285 291 287 286 287 293 298 302 303 303 304 305 308 308 310 310 309 309 307 305 304 304 304 304 304 304 305 306 307 308 308 307 307 306 306 305 303 302 301 300 299 298 297 297 297 297 296 296 296 296 296 295 294 295 296 295 295 295 295 294 294 293 293 293
291 291 298 301 300 300 298 302 302 302 297 298 300 301 293 290 294 286 287 286 285 286 286 285 286 292 293 301 302 304 303 302 304 304 304 305 305 307 307 307 306 305 304 304 304 304 304 305 305 306 307 307 308 307 307 306 306 304 303 302 301 301 300 299 297 297 297 296 295 295 294 294 294 294 295 295 294 295 296 295 295 295 294 294 294 293
291 289 294 299 301 298 298 300 299 303 288 295 296 290 293 298 295 288 285 286 285 284 282 289 289 293 298 298 300 300 300 301 302 303 302 303 305 306 307 308 308 306 305 304 305 304 304 304 305 306 306 307 307 307 306 306 306 305 303 302 301 301 300 299 298 298 297 296 295 295 293 293 293 293 293 294 294 294 295 295 295 295 295 294 293 292
291 292 290 295 292 296 296 298 300 299 301 296 289 294 299 302 299 291 284 287 285 282 284 289 286 288 289 286 300 300 299 300 301 301 302 304 306 306 307 309 310 309 306 305 305 306 305 304 304 306 307 307 307 307 306 306 306 306 304 302 300 300 299 299 298 298 297 296 294 294 293 292 292 292 293 294 294 295 294 295 294 294 294 293 293 292
298 289 292 292 295 296 297 298 297 299 299 298 294 302 292 287 285 290 287 280 280 281 283 288 289 289 291 290 295 297 297 299 300 302 302 302 304 306 307 308 310 308 306 304 304 305 304 304 304 305 306 307 308 307 307 306 306 306 304 303 302 300 299 299 299 298 297 296 295 294 292 292 292 292 292 293 294 294 294 294 294 293 293 292 291 290
298 288 290 290 294 296 296 296 287 292 298 300 301 296 300 294 289 287 287 287 287 282 282 284 287 285 294 294 297 297 298 300 300 301 302 303 304 305 306 308 311 307 305 305 305 305 304 304 304 304 305 306 307 307 306 306 306 305 304 303 302 301 300 299 298 297 296 295 295 295 293 292 291 291 292 293 293 293 293 293 293 293 292 291 290 290
293 294 286 290 294 295 288 293 290 294 289 290 291 291 294 290 293 292 294 288 285 283 283 282 282 287 295 299 298 299 300 301 301 301 304 304 305 306 308 312 312 309 307 306 305 304 304 304 303 304 305 306 307 307 306 306 305 305 303 302 302 301 300 298 297 296 295 294 294 293 292 291 291 290 291 292 293 292 293 293 293 292 292 290 289 289
290 290 287 288 289 288 292 299 297 298 297 293 292 290 292 289 287 285 283 293 287 286 283 283 282 289 298 300 301 300 301 302 303 303 304 306 306 308 314 309 308 308 307 306 305 304 303 303 303 303 304 305 306 306 305 305 305 304 302 301 301 301 300 298 297 296 295 295 294 293 292 291 291 291 291 291 291 291 292 292 292 292 290 289 289 289
297 297 290 288 289 292 297 295 295 294 295 297 296 293 296 294 292 288 282 286 287 288 290 288 285 288 300 301 301 301 302 303 304 306 304 305 308 308 308 307 306 307 307 305 305 304 303 302 302 302 302 303 304 305 305 305 304 304 303 301 301 300 300 299 297 297 296 294 293 292 292 291 290 290 290 290 290 290 291 291 291 291 289 289 289 289
296 289 288 289 296 294 293 295 296 295 296 295 295 296 296 292 293 291 289 291 288 288 286 286 283 288 301 302 301 301 302 302 302 302 304 305 306 306 306 306 305 304 303 303 303 303 302 302 301 300 301 302 303 304 304 304 304 304 303 302 300 300 300 299 297 296 296 294 293 292 291 291 290 290 289 289 289 289 290 290 290 290 289 289 288 288
290 289 290 286 286 288 290 292 292 295 295 292 293 295 297 298 297 295 290 290 287 288 288 286 281 287 301 301 299 299 301 300 301 302 301 302 304 306 305 306 304 303 304 302 301 301 300 300 300 299 300 301 302 303 304 304 304 303 303 302 300 299 300 298 297 295 294 294 292 291 292 291 290 289 289 289 289 289 290 289 289 289 289 288 288 288
293 292 289 284 281 280 280 282 283 286 288 292 294 295 296 295 294 291 287 289 285 288 288 286 286 292 297 297 298 299 300 300 302 302 301 303 303 303 306 307 305 304 304 303 301 300 299 299 300 299 299 300 301 302 303 303 303 303 302 301 300 299 299 297 296 295 293 292 292 291 291 290 289 288 288 288 288 289 289 289 289 288 288 288 287 287
292 296 293 291 288 286 289 293 298 296 292 288 291 292 294 295 296 295 292 288 285 288 287 289 290 291 294 297 297 299 299 299 299 301 302 303 304 305 305 306 306 305 304 303 302 302 301 299 299 299 299 300 300 301 302 303 303 303 302 300 300 299 298 296 295 294 293 292 291 289 289 289 288 288 288 288 288 289 289 289 288 288 287 287 287 286
292 291 294 294 293 294 295 297 297 296 292 292 291 291 294 294 294 291 289 287 291 288 285 291 294 290 292 296 297 298 297 299 301 303 303 303 305 307 309 308 302 303 303 303 302 302 301 301 300 299 299 299 299 300 301 302 303 302 301 300 299 298 297 296 294 293 292 291 290 290 289 289 288 288 288 288 288 288 288 288 287 287 287 287 286 285
289 288 294 294 294 295 296 296 298 297 296 295 294 294 292 294 292 288 289 293 294 288 286 292 296 292 294 297 299 300 301 300 301 302 303 304 305 307 308 308 306 305 304 303 302 303 302 302 301 300 299 298 298 299 299 300 301 301 301 300 299 298 297 296 294 293 292 291 290 290 289 289 288 288 288 288 288 287 288 287 287 287 287 286 286 286
291 289 292 295 291 294 295 295 299 296 295 296 296 296 296 295 293 293 293 294 294 292 294 294 295 295 298 298 300 301 303 303 303 304 304 303 303 305 305 305 307 307 306 306 306 305 304 304 303 301 299 298 298 298 298 299 299 300 300 299 299 298 297 296 294 293 292 292 291 291 290 288 288 288 288 288 287 287 287 286 286 286 285 285 285 285
291 287 292 290 289 289 292 293 293 293 293 290 294 296 296 296 295 295 294 295 295 294 295 295 294 294 299 302 302 304 303 304 303 302 302 303 304 303 304 304 304 305 306 309 307 307 306 305 303 301 299 298 298 297 298 298 299 300 299 299 299 297 297 296 294 294 292 292 291 291 290 288 288 288 287 287 287 287 286 286 286 285 285 285 284 284
291 287 290 290 287 287 290 289 290 290 289 289 289 292 294 294 292 294 292 295 293 291 293 293 290 292 298 302 303 303 303 302 301 302 302 303 303 303 303 304 304 305 306 306 307 307 306 305 303 301 300 298 298 298 298 298 298 298 298 299 298 297 296 295 294 293 292 292 291 291 290 289 288 287 287 287 286 286 286 286 285 285 285 284 284 284
288 289 288 289 286 285 289 289 287 287 286 285 286 290 293 295 296 297 297 297 296 297 292 289 291 297 300 302 300 300 301 301 302 302 302 303 304 304 304 304 305 305 306 307 306 306 306 305 304 303 301 300 299 298 298 299 298 297 298 298 299 297 294 294 294 293 293 292 291 291 291 290 288 287 287 287 286 286 286 285 285 284 284 284 284 283
290 288 288 290 285 286 287 285 287 285 279 281 293 298 296 293 294 293 294 296 297 298 295 298 297 300 301 300 300 300 300 301 302 304 305 305 304 305 305 305 305 306 306 307 307 307 307 307 306 304 303 302 301 299 299 298 298 298 298 298 298 296 294 293 293 293 293 292 291 290 290 290 289 287 287 287 286 286 285 285 285 285 285 284 284 283
288 288 288 289 286 286 286 286 283 278 280 292 300 299 300 297 296 295 296 297 298 299 298 298 298 299 300 301 301 302 303 304 304 304 304 306 308 307 304 304 305 305 305 305 306 306 307 307 306 305 302 301 300 299 298 298 298 297 297 297 297 297 294 293 293 292 292 291 291 290 290 290 289 288 287 286 286 286 285 285 285 285 284 284 283 283
288 288 288 287 288 288 284 284 278 279 288 291 294 296 296 298 296 296 294 297 297 298 299 297 298 299 300 301 302 303 303 303 303 303 304 305 305 305 304 304 305 305 305 305 305 306 306 305 305 304 303 301 300 299 298 297 297 296 296 296 296 295 294 293 292 292 291 291 291 290 290 289 289 288 287 286 286 285 285 285 284 284 284 284 283 284
293 290 288 285 289 282 284 284 283 290 288 291 292 294 294 293 293 293 288 293 298 299 299 298 298 299 300 301 301 302 302 301 300 302 303 304 305 305 305 305 306 306 306 306 306 306 307 306 305 305 304 302 301 299 298 297 296 296 295 294 294 293 293 292 291 291 291 291 290 290 290 290 288 288 287 286 285 285 285 284 284 284 284 283 283 282
295 289 289 285 284 287 284 282 283 283 280 286 294 300 300 301 300 300 294 290 299 300 301 299 298 299 299 300 301 301 301 297 295 298 302 304 305 306 305 306 305 305 305 304 304 304 303 303 302 301 303 301 300 299 298 296 296 295 294 293 293 292 292 291 291 291 291 291 290 290 290 290 288 287 286 285 285 285 285 285 284 284 284 283 282 282
294 294 290 287 285 286 283 281 281 280 284 291 295 297 300 301 301 300 292 288 295 297 300 301 299 299 299 299 299 300 297 292 294 298 304 304 304 305 303 303 303 303 303 303 303 300 299 299 299 297 297 298 297 297 296 295 294 293 292 292 292 291 291 290 291 291 291 291 291 291 290 289 288 287 286 285 285 285 284 284 284 284 284 283 283 282
288 289 287 284 284 286 284 282 281 286 286 291 293 294 294 301 304 295 284 285 293 298 300 300 298 298 298 299 299 298 296 293 295 300 303 303 299 302 303 302 301 301 300 299 298 297 296 295 295 295 295 295 295 294 294 293 293 291 292 291 292 290 290 291 291 292 292 292 291 291 289 288 287 286 286 285 285 285 285 285 284 284 283 283 283 282
285 285 286 282 284 284 285 284 286 286 293 294 292 292 295 301 297 286 282 290 295 297 298 300 298 299 299 298 299 295 298 301 302 304 298 296 297 297 296 296 297 296 296 295 295 292 294 294 295 295 295 295 294 293 293 292 292 291 291 291 290 290 291 291 292 291 291 292 291 289 288 287 286 286 285 285 285 285 285 285 284 284 283 282 282 282
285 286 286 286 283 283 284 283 283 287 291 295 294 296 298 295 286 285 292 295 296 294 295 298 299 299 299 299 299 300 302 302 301 302 301 299 300 300 299 297 297 296 295 293 292 290 292 293 292 292 293 293 293 292 291 291 290 290 291 290 290 291 291 291 291 291 291 290 289 288 287 286 286 286 285 285 285 284 284 284 284 283 283 282 282 281
286 284 283 284 286 286 285 282 282 278 288 296 294 291 293 289 291 296 294 291 293 294 295 295 298 299 298 298 299 301 301 301 301 300 300 299 299 298 298 298 297 296 296 295 294 292 291 292 292 292 292 292 291 290 290 289 288 288 288 289 290 291 291 290 290 290 290 288 288 287 286 286 285 285 285 285 285 284 284 284 283 282 282 281 281 280
291 285 285 286 289 283 283 280 282 289 293 297 296 290 291 295 299 295 297 295 293 293 295 297 297 298 298 297 298 299 300 299 298 299 298 298 298 298 298 296 295 294 294 293 293 292 289 290 291 291 291 290 290 289 289 288 287 287 288 288 291 290 289 289 289 288 288 287 287 286 286 285 285 285 285 285 285 284 283 282 282 281 281 281 280 279
291 288 291 287 291 287 286 288 293 295 295 297 300 299 299 300 301 296 294 295 295 295 293 295 296 296 296 296 296 296 296 297 297 298 297 297 297 297 296 296 295 294 293 292 292 291 289 290 290 290 290 289 288 288 287 287 287 286 286 289 289 287 288 288 287 287 287 286 286 286 285 285 285 285 285 285 284 283 283 282 281 280 280 279 279 279
294 294 292 291 289 293 294 295 297 295 295 296 300 302 301 301 296 295 295 294 295 293 294 295 295 294 294 294 293 294 295 296 296 296 296 296 296 296 295 295 294 292 291 290 290 289 288 288 287 288 288 288 287 287 287 287 287 286 287 289 288 288 287 286 286 286 286 286 286 285 285 284 284 285 284 284 284 284 283 282 280 280 279 279 279 279
292 291 290 289 291 289 285 295 294 295 296 295 297 299 297 296 296 296 295 295 294 294 294 294 294 295 294 293 293 294 295 295 295 295 295 295 295 295 295 295 294 293 291 290 290 288 287 286 286 286 286 286 286 286 286 286 286 287 287 286 286 287 286 285 286 285 285 285 285 285 285 284 284 284 283 283 284 283 282 281 281 280 278 278 278 278
288 295 290 290 290 288 288 292 293 293 293 297 297 296 297 298 298 296 296 296 296 296 295 295 294 292 292 291 293 293 294 295 294 294 294 295 295 295 295 294 293 292 291 290 289 287 286 286 286 286 286 286 286 286 286 286 286 286 286 286 286 285 285 285 285 285 285 284 284 284 284 284 279 281 282 282 282 281 280 280 280 279 278 278 279 278
288 289 285 289 287 290 291 293 294 294 295 294 294 294 297 298 297 295 295 294 293 293 293 294 294 294 294 293 294 293 292 293 294 294 293 294 293 293 293 293 293 291 290 288 287 286 286 286 285 286 285 285 285 285 285 285 284 284 284 284 284 284 284 284 283 284 284 284 283 283 283 282 281 282 281 281 281 281 281 280 280 280 279 281 281 280
286 285 289 287 284 285 287 290 294 288 289 294 294 296 294 294 294 293 293 292 293 293 294 293 293 294 293 292 292 292 291 292 293 293 292 293 293 293 292 292 291 290 289 288 286 285 285 285 285 285 285 284 284 284 283 282 282 282 283 283 283 284 284 283 283 283 282 282 282 282 282 281 281 281 280 281 280 278 276 278 282 281 280 279 282 282
288 289 289 286 286 285 291 292 295 294 293 295 296 296 295 295 293 292 292 293 294 294 294 293 292 293 293 293 291 290 290 290 291 292 291 291 292 292 292 290 289 289 288 286 285 284 284 284 284 284 283 283 282 282 281 281 281 281 281 282 283 283 283 282 282 282 281 281 281 281 281 280 280 280 280 280 279 278 276 276 277 280 281 281 280 280
Wind_Speed
3 5 6 6 7 8 7 4 4 5 4 2 2 3 4 3 3 7 5 4 0 4 10 12 13 15 16 13 13 13 12 14 12 13 13 12 11 11 11 12 11 10 10 7 9 11 12 12 11 10 9 9 10 9 10 9 9 9 8 8 9 7 7 6 6 5 5 5 4 3 4 4 4 3 2 2 2 1 3 4 3 3 3 4 5 6
2 6 7 5 7 4 4 4 3 3 2 3 2 3 4 3 5 4 3 3 2 3 5 6 9 15 17 14 15 14 14 17 17 15 15 15 14 12 13 13 12 10 6 10 8 10 11 10 11 11 9 11 12 11 11 11 10 9 10 10 9 7 6 6 7 6 6 5 5 4 4 4 4 4 3 3 3 1 2 3 4 3 4 5 5 4
6 7 2 7 5 6 5 3 2 1 2 2 4 2 3 4 2 6 5 2 2 2 8 8 10 14 17 16 16 16 17 15 15 15 16 16 14 13 12 12 11 9 9 9 9 11 11 12 13 11 10 10 11 11 11 10 10 10 10 10 10 7 7 6 6 6 6 5 3 2 4 5 4 2 2 2 3 3 3 2 3 4 4 5 4 4
6 9 5 5 5 6 4 3 3 3 3 3 5 4 5 3 2 3 4 1 4 3 7 10 12 14 18 17 19 19 15 14 13 14 16 15 16 16 14 11 9 10 9 11 12 12 12 12 12 11 11 11 11 10 11 11 11 9 9 10 10 8 7 7 6 5 5 7 7 7 5 6 4 3 2 4 3 2 4 3 3 3 3 3 5 5
5 5 3 4 4 4 6 5 6 5 6 6 5 5 6 2 1 3 3 4 4 2 2 10 12 12 12 11 8 6 4 6 9 10 14 14 12 12 7 6 8 9 8 9 11 11 12 13 13 13 12 10 11 11 11 11 10 7 10 11 11 8 7 7 7 7 7 7 7 6 7 6 6 5 4 3 2 2 2 3 3 3 2 3 4 4
4 3 4 6 4 4 6 6 7 5 7 5 8 9 6 3 4 2 4 7 5 5 3 6 7 5 3 5 5 3 2 5 7 9 12 12 12 10 10 10 8 8 10 10 10 13 13 13 12 12 12 12 11 11 10 10 10 9 9 10 11 8 7 7 8 8 7 6 7 7 6 5 3 4 4 6 7 6 5 5 4 4 3 3 3 3
1 3 4 6 6 5 6 6 6 6 6 7 1 2 7 3 2 3 5 4 4 4 3 2 4 10 4 11 9 8 7 7 6 9 12 11 8 8 7 6 7 8 8 9 8 9 11 12 12 13 13 12 11 10 10 10 10 10 9 10 10 8 7 7 8 9 6 7 6 8 8 8 8 7 4 3 2 3 3 4 5 4 3 3 4 3
6 5 3 3 6 6 5 6 6 9 6 6 3 2 1 2 2 3 3 4 7 5 7 6 6 9 11 9 13 14 10 8 8 10 13 9 8 5 4 5 4 4 5 6 8 8 9 11 12 13 12 12 11 10 10 10 9 11 11 11 11 8 7 6 7 8 7 7 7 7 6 6 6 6 8 7 6 4 4 5 5 4 4 3 3 4
5 7 8 9 7 6 8 1 2 10 6 2 2 3 3 2 1 1 2 4 3 6 7 5 5 4 9 3 2 10 8 7 9 14 11 6 2 3 2 2 4 2 2 4 5 7 8 10 10 11 11 11 11 10 10 10 9 9 10 11 11 9 8 8 9 9 8 7 7 6 6 5 4 4 5 5 4 5 5 6 5 5 5 4 4 3
4 1 6 6 7 7 4 3 5 3 8 2 3 4 6 4 2 1 3 3 4 4 8 5 6 4 15 6 7 5 7 9 12 10 8 2 4 2 2 3 2 3 2 2 4 5 7 8 9 9 10 11 10 10 10 10 9 9 11 11 11 10 8 8 10 9 9 8 7 7 6 7 6 5 5 5 5 5 5 6 6 5 5 4 4 4
2 1 3 2 5 3 6 6 4 6 6 9 6 6 4 2 2 2 1 3 3 6 7 6 8 3 7 7 9 9 8 11 7 6 4 4 4 4 4 3 3 3 4 3 3 4 6 6 8 9 10 11 10 9 10 10 10 10 12 12 11 11 8 9 10 10 10 9 8 8 8 8 8 7 7 7 5 5 5 6 6 6 5 5 5 4
3 4 4 1 2 5 7 7 6 2 5 5 4 4 3 3 3 3 3 2 4 7 2 5 1 5 5 3 6 4 1 2 4 4 3 2 1 3 3 4 4 4 4 4 5 5 7 7 8 9 10 11 12 11 11 10 10 11 12 12 11 10 10 10 10 10 9 8 7 5 6 8 6 8 8 9 11 9 9 9 8 6 6 6 5 5
5 5 5 6 3 5 6 7 5 3 2 3 6 5 4 3 2 4 4 4 7 7 3 3 1 3 17 14 2 2 3 5 4 2 1 1 1 3 5 6 5 5 5 5 5 6 7 8 9 10 11 11 12 12 12 11 11 11 12 14 12 11 11 10 9 10 9 8 6 6 6 4 5 5 4 6 9 8 8 8 8 8 7 6 6 5
3 5 7 5 3 6 6 8 6 4 8 8 9 8 6 6 6 8 6 2 2 3 1 4 2 7 13 11 12 16 15 11 6 5 4 5 5 3 5 6 6 5 6 6 6 7 7 8 8 10 11 11 11 12 12 11 11 11 11 14 12 11 10 9 9 10 10 9 8 7 6 5 5 5 4 3 6 8 6 6 8 8 8 7 8 7
6 5 8 11 5 11 9 10 6 5 12 12 8 9 7 5 4 6 5 7 4 1 3 4 0 6 1 2 6 3 5 4 2 2 4 5 4 3 3 4 7 7 6 6 7 7 8 9 10 10 11 11 11 12 11 11 11 12 11 12 11 11 10 10 11 10 10 8 8 7 6 5 4 5 4 4 4 6 7 7 7 7 6 6 7 7
12 7 5 6 4 13 12 5 2 5 5 7 5 2 5 9 5 9 2 3 2 1 2 3 7 4 7 7 6 4 3 5 5 7 7 8 7 6 6 8 8 8 8 8 7 7 8 9 10 9 10 10 10 12 11 12 11 12 12 12 11 12 11 11 11 10 10 10 7 8 8 7 6 5 5 4 5 7 6 6 7 7 7 6 6 6
3 7 3 2 1 7 6 3 3 2 6 7 6 6 5 6 1 1 1 3 1 2 10 4 8 11 10 18 20 19 16 13 10 7 5 6 8 8 9 8 7 8 8 8 7 7 9 9 10 10 10 10 11 11 12 12 12 13 13 12 12 12 10 12 12 11 11 10 9 10 8 7 8 8 8 8 8 8 5 5 6 6 6 6 6 6
5 2 2 4 6 1 3 4 3 3 3 6 5 7 4 1 4 3 6 2 4 9 7 4 10 13 3 11 8 4 5 7 8 9 9 9 8 9 8 7 4 6 7 8 8 8 10 10 11 10 10 11 12 12 12 12 12 12 12 13 12 11 12 12 11 11 10 10 9 9 9 7 8 9 9 8 8 7 5 6 5 6 5 6 6 6
4 7 3 3 4 4 1 0 4 2 4 3 1 3 6 4 5 8 3 8 8 7 6 9 12 13 13 17 5 2 6 5 8 8 9 11 12 10 9 10 4 6 7 8 9 8 8 9 10 11 11 11 11 11 11 11 11 11 11 12 13 12 12 12 10 10 9 9 7 7 8 9 7 5 7 6 6 5 6 6 6 7 7 7 7 7
4 7 3 2 1 4 3 6 8 7 2 2 2 2 2 2 4 7 8 2 3 8 5 7 9 11 12 10 12 14 12 9 7 9 9 11 11 9 8 8 6 7 7 8 8 7 8 8 10 11 11 12 12 12 11 11 11 12 12 12 13 12 11 11 10 10 10 9 8 8 7 7 6 6 6 7 6 7 7 8 7 8 8 8 7 7
5 3 7 4 4 3 5 8 10 10 9 7 6 7 4 3 3 4 2 5 4 6 7 8 11 11 8 5 9 7 7 7 7 7 7 7 9 9 7 1 4 4 4 5 7 7 7 7 8 9 9 9 10 10 10 11 12 12 12 12 13 14 13 13 12 11 9 8 9 10 10 9 8 9 9 8 8 7 7 7 7 7 7 7 8 8
3 4 8 4 5 9 7 3 5 7 11 13 14 14 14 10 6 6 8 3 0 4 6 6 12 12 4 4 1 3 2 3 6 5 5 7 9 8 4 4 5 5 6 6 7 10 10 10 9 8 8 8 10 11 13 12 11 12 13 12 13 14 13 13 12 11 10 9 8 11 10 10 9 10 10 11 10 8 7 7 7 7 8 7 8 9
8 2 5 6 8 8 2 2 2 0 4 2 5 10 9 10 8 7 9 3 1 5 5 4 6 18 1 4 2 1 2 1 2 1 6 5 4 4 5 4 2 2 5 4 4 3 5 7 8 9 10 11 12 11 13 13 13 13 13 13 12 13 14 13 12 11 10 9 9 11 10 10 10 10 10 11 10 9 9 8 8 7 9 9 8 7
6 2 4 9 3 4 3 3 2 2 2 5 8 4 5 11 12 9 7 3 4 4 7 8 8 14 1 3 4 2 2 1 2 1 3 5 4 3 2 0 1 2 3 4 3 2 3 5 6 7 9 10 11 12 13 12 13 13 13 13 13 15 14 13 12 11 11 10 11 11 12 11 10 12 12 12 10 12 10 9 8 8 9 8 8 9
4 4 8 5 5 4 4 2 3 2 3 6 5 7 7 7 10 5 2 1 5 11 13 8 12 14 1 2 2 2 3 3 4 3 2 4 4 3 3 2 1 3 3 3 5 5 5 6 8 8 9 10 11 11 12 12 13 13 14 13 14 13 14 12 11 11 10 11 13 12 13 11 12 12 13 11 9 12 11 10 9 9 10 9 9 8
6 9 9 8 10 11 9 9 11 8 10 6 8 13 15 15 15 5 8 8 10 14 15 10 14 19 3 1 4 4 4 3 4 3 3 4 5 4 3 2 4 4 5 6 7 7 7 6 6 8 9 9 10 11 12 12 12 12 13 14 13 13 13 12 10 10 9 10 13 13 13 12 12 13 13 12 10 12 11 11 10 10 9 10 10 9
2 6 12 13 13 13 11 1 4 12 8 9 12 15 15 17 17 13 5 9 15 14 8 14 18 19 15 7 6 8 5 7 6 5 6 5 5 5 5 4 3 3 4 6 6 6 5 7 10 9 10 10 10 11 11 11 12 12 12 13 14 13 12 11 10 11 11 10 10 9 11 12 13 12 12 12 11 11 11 10 10 11 11 10 10 11
0 4 12 16 19 16 15 7 9 16 14 16 15 15 18 16 17 14 14 19 12 4 16 18 16 14 24 20 14 9 7 5 6 6 5 3 4 5 4 4 5 5 6 6 6 7 9 9 8 10 11 10 11 11 11 11 11 12 12 12 12 12 12 10 11 12 11 11 10 9 11 11 10 12 12 11 10 11 11 10 10 11 10 10 12 11
4 6 12 14 16 19 17 13 13 11 13 13 15 15 18 18 17 17 20 22 14 13 18 19 8 16 22 21 13 19 10 10 11 10 7 7 6 2 3 5 7 8 7 9 10 8 7 9 10 10 11 11 11 12 12 11 11 11 11 11 11 12 13 11 12 11 11 12 13 12 10 9 10 10 12 12 11 11 12 11 11 11 10 11 10 9
3 8 10 12 13 17 18 19 10 12 7 9 13 16 17 20 22 24 23 22 22 18 19 21 19 17 20 18 11 13 13 11 10 7 6 7 9 8 11 13 10 9 9 9 9 9 9 9 7 7 9 10 13 13 13 12 12 12 12 12 12 12 12 11 13 12 11 14 14 13 11 10 11 11 12 13 13 11 12 11 11 11 11 12 11 11
6 9 14 7 7 12 19 16 10 10 11 9 9 11 16 20 22 25 21 19 19 21 22 22 20 22 22 15 13 10 3 2 3 7 11 12 12 14 15 16 17 17 16 14 16 14 12 9 7 7 9 11 13 14 13 13 12 11 12 12 12 12 12 12 13 12 11 12 11 13 12 11 12 13 14 14 13 12 12 11 10 10 11 12 12 12
6 3 3 2 9 13 13 10 8 2 4 8 11 16 19 23 19 14 14 13 13 18 21 19 20 22 15 2 11 10 9 9 11 12 11 11 15 16 18 17 15 14 15 18 18 16 13 10 10 10 12 12 13 13 13 12 13 12 14 13 13 11 10 11 13 13 11 11 11 14 14 13 13 14 14 13 14 13 11 11 10 11 13 13 11 11
4 4 5 4 9 12 12 3 7 5 1 7 14 24 25 12 12 11 14 18 21 18 16 15 19 20 12 3 5 9 10 12 12 11 13 15 18 18 18 16 15 15 15 15 14 13 13 13 13 14 14 11 9 10 14 13 11 14 14 13 12 9 11 12 13 13 12 13 12 15 15 14 14 14 13 13 11 10 10 12 11 11 12 13 12 10
2 5 6 4 7 9 4 6 6 5 10 15 22 7 8 19 15 12 16 20 19 15 15 16 16 15 11 9 12 12 12 13 14 15 14 14 15 12 12 13 14 14 13 12 11 12 13 13 11 12 14 15 14 14 12 11 14 12 10 10 10 11 12 13 14 14 14 14 14 16 16 15 14 13 12 11 11 12 11 12 13 11 11 11 10 11
7 7 7 5 5 6 4 6 5 13 16 18 2 1 9 13 19 22 19 16 14 18 19 19 21 22 18 11 13 15 14 15 18 22 21 3 1 3 12 14 15 13 14 14 14 15 13 12 11 9 9 9 11 10 9 10 10 8 9 10 12 12 12 13 13 14 14 15 14 14 15 15 15 13 12 12 12 11 12 12 11 10 10 11 11 11
8 10 7 6 4 1 2 7 10 9 5 4 8 9 3 5 8 10 15 17 19 18 19 21 24 23 18 16 17 17 18 22 23 20 15 4 5 14 17 14 12 13 15 13 13 13 12 10 9 8 9 9 9 7 9 10 9 9 10 10 11 11 11 12 13 14 14 15 14 15 14 14 15 13 12 12 12 12 13 12 11 12 10 9 8 4
8 3 5 7 7 10 6 10 14 7 14 14 13 13 9 9 9 11 12 13 17 19 19 19 21 19 16 15 21 22 19 16 17 16 8 4 13 16 14 14 13 14 12 11 10 11 9 7 6 6 5 5 6 8 10 9 9 10 9 11 11 11 11 12 13 14 15 14 14 15 15 14 14 13 13 13 13 13 13 12 11 10 8 9 9 11
8 11 6 10 7 9 9 11 7 7 13 19 18 1 11 11 12 10 8 14 16 17 17 19 19 17 19 21 21 19 11 11 15 12 6 10 14 9 10 10 10 9 8 8 7 6 5 5 4 3 3 5 6 8 7 8 10 10 11 11 11 11 12 12 14 14 14 14 14 14 14 14 12 12 12 12 13 13 10 9 8 9 9 11 11 12
12 10 7 12 7 7 9 11 8 11 13 12 3 8 10 12 15 8 8 13 14 7 10 16 17 16 18 18 17 11 6 8 13 10 7 11 6 3 6 5 3 4 5 4 3 4 5 3 3 3 3 4 7 5 6 8 9 9 11 11 11 12 13 15 15 14 14 15 14 13 13 10 11 11 11 12 11 10 11 11 11 10 9 9 9 10
12 10 7 11 8 10 9 10 11 5 8 2 1 0 1 1 6 7 8 11 5 10 12 13 13 15 16 12 10 9 8 8 12 10 4 1 1 0 0 3 3 2 2 2 1 1 3 4 3 4 5 7 7 3 7 8 9 9 11 10 10 11 14 15 14 12 12 11 12 11 10 10 11 11 12 12 10 10 11 9 9 10 10 9 9 8
9 7 9 13 11 11 13 6 3 6 8 4 2 2 2 1 7 10 14 1 5 4 1 6 9 11 10 10 7 5 10 11 11 10 2 2 1 2 1 1 2 2 5 4 4 3 4 3 4 6 6 5 3 4 6 7 8 10 10 9 10 15 14 11 9 11 10 10 10 9 10 9 11 13 11 11 11 11 10 9 10 9 9 9 7 7
8 7 5 7 10 10 10 10 7 5 5 4 4 6 4 5 6 12 4 1 6 2 5 4 9 10 9 10 7 8 8 10 11 9 5 4 4 5 4 3 3 4 4 5 4 4 3 4 5 6 5 2 2 4 6 6 9 10 10 10 13 12 6 7 9 9 9 9 7 8 9 10 9 10 11 10 9 9 9 7 7 8 8 5 7 9
10 9 7 9 6 5 4 8 8 11 4 12 10 3 3 4 8 3 1 1 0 4 7 6 5 7 6 8 8 9 9 8 7 5 4 6 5 7 6 6 7 7 8 5 4 4 4 5 6 6 6 2 2 3 5 5 8 7 6 12 10 5 6 7 7 9 8 6 7 8 10 10 12 10 8 9 9 10 9 8 8 8 9 9 8 9
8 5 4 6 6 6 9 9 8 7 2 13 15 9 9 16 4 4 6 5 1 1 2 1 2 4 5 6 7 6 6 6 7 8 8 7 7 5 4 4 4 5 7 6 5 3 1 5 6 6 3 2 3 3 4 6 8 7 8 9 4 5 6 7 5 6 7 7 7 9 9 9 10 9 9 10 10 10 10 9 9 8 9 9 9 9
10 10 8 6 6 7 6 8 8 3 9 12 10 8 10 15 10 3 3 1 2 2 2 2 4 5 5 6 8 9 10 10 8 7 7 8 7 6 6 6 5 6 6 6 5 1 2 5 7 6 4 3 3 3 4 5 8 7 9 6 5 4 5 5 6 7 8 8 8 8 8 8 9 9 9 10 11 10 8 9 9 8 7 8 8 9
4 10 4 6 5 4 8 5 1 3 4 8 8 5 2 1 5 6 4 4 3 3 1 1 3 4 4 3 4 6 7 8 9 9 8 8 8 7 6 6 5 4 5 5 6 5 5 4 4 5 5 4 3 4 3 4 5 9 6 4 5 7 5 6 7 8 8 8 7 8 9 10 8 9 9 10 9 10 9 12 8 7 6 6 4 6
7 1 0 6 2 4 7 11 15 9 3 5 8 6 1 2 1 2 2 0 3 3 3 4 5 6 6 5 7 9 10 9 8 9 8 9 10 11 10 11 10 5 5 7 7 3 3 4 5 7 6 7 3 3 2 4 4 3 2 3 4 5 6 7 8 8 8 8 8 8 10 10 6 6 7 8 5 6 9 7 6 7 9 8 8 8
4 2 4 5 6 10 4 4 5 3 1 2 3 4 6 7 3 3 3 3 3 3 4 5 2 6 4 5 8 8 11 11 10 11 10 9 10 10 10 10 11 9 5 5 4 3 4 5 7 7 6 6 4 2 2 3 3 3 3 4 5 5 7 7 8 8 8 8 8 7 8 9 11 11 6 5 6 6 5 4 9 9 9 11 10 9
1 4 2 0 3 4 9 12 10 4 3 6 6 4 4 4 3 5 3 3 3 3 7 8 5 6 5 8 7 7 10 12 11 11 11 10 10 9 10 9 8 8 8 5 3 4 6 6 7 7 6 5 1 2 3 3 2 3 4 4 5 7 8 7 7 7 8 8 7 8 8 8 9 6 5 6 4 5 7 9 7 7 6 5 7 9
1 3 4 3 3 4 7 4 1 5 4 1 1 5 6 6 4 5 5 6 6 7 7 8 10 6 7 8 7 6 9 11 11 9 9 11 11 10 9 9 9 8 9 6 1 3 6 6 6 6 6 3 2 2 3 2 2 3 3 4 5 7 8 7 7 7 7 7 7 8 8 6 5 7 6 6 7 8 7 8 8 2 6 5 5 6
7 5 4 5 5 6 5 3 1 4 6 7 9 9 9 4 5 5 7 8 8 7 6 5 7 10 9 6 5 7 10 10 13 9 9 11 12 9 8 8 10 10 9 4 4 6 7 7 6 5 5 3 3 4 3 3 3 3 3 4 5 6 7 7 6 5 5 6 5 8 8 9 9 8 7 7 7 7 7 5 6 12 11 7 6 7
Wind_Direction
332 193 201 201 221 200 201 225 37 48 18 3 344 293 273 284 270 100 98 61 188 290 258 255 262 267 269 267 268 269 267 261 246 245 248 243 239 237 235 235 223 211 217 176 168 165 173 177 179 180 177 181 179 182 178 178 178 176 177 187 191 182 178 166 159 167 166 159 138 139 163 148 139 120 96 95 85 59 127 134 114 113 125 124 120 123
250 237 217 212 42 53 100 93 79 46 323 280 280 276 246 174 273 81 99 142 112 277 286 290 278 271 273 273 271 265 258 255 253 252 249 246 240 236 233 233 226 215 132 133 148 161 167 177 180 179 181 182 181 184 181 182 179 180 183 195 191 178 178 183 176 166 177 171 170 166 163 142 140 131 146 147 148 149 96 113 131 137 142 141 134 139
210 218 177 80 91 84 83 107 114 254 195 218 268 252 287 254 311 112 83 127 161 223 271 290 288 281 279 278 272 260 249 247 248 251 258 263 258 246 239 237 233 199 167 172 171 169 176 179 182 182 186 188 188 181 183 179 179 183 187 196 193 182 180 183 176 169 171 158 78 116 128 138 121 40 39 93 90 129 135 94 77 113 127 140 132 142
214 222 123 120 122 123 96 140 157 180 229 225 218 229 243 57 327 238 108 119 186 235 302 316 296 276 273 263 257 259 256 255 252 251 255 254 256 255 250 243 232 222 186 179 181 179 180 183 185 185 188 189 186 182 180 180 182 184 191 195 193 183 182 175 170 151 107 91 84 65 65 66 71 126 78 74 68 86 116 120 94 66 100 123 134 147
210 73 60 142 159 171 170 167 187 203 226 212 240 246 260 273 250 266 355 309 211 238 304 274 274 263 242 252 253 246 254 246 248 246 250 250 249 256 266 256 240 229 214 198 183 178 178 182 189 189 188 184 186 184 182 179 180 186 191 193 195 182 180 176 150 126 120 113 100 91 81 85 94 78 45 85 132 143 123 121 132 120 98 103 120 135
195 85 124 143 160 187 176 190 205 216 244 206 205 229 260 360 293 316 322 342 287 244 123 329 318 294 100 208 253 160 185 212 215 225 238 243 238 232 233 232 228 230 231 226 199 182 180 183 183 188 185 188 186 185 180 176 179 186 189 193 191 178 179 172 155 141 140 146 140 141 143 149 150 143 153 179 180 174 166 155 118 106 110 118 119 132
357 105 199 153 165 167 208 232 192 211 246 251 172 279 242 255 10 320 302 315 280 290 116 323 321 283 265 264 235 217 207 235 243 230 259 257 245 219 213 214 220 222 214 217 218 183 176 180 181 185 186 187 186 185 173 174 183 186 187 192 188 176 172 161 153 149 150 152 164 168 168 166 169 166 188 168 117 135 135 120 132 128 118 126 143 134
134 151 125 177 151 175 183 215 183 201 230 237 38 308 143 196 210 264 291 268 275 326 289 167 223 279 287 250 232 229 233 242 247 253 251 251 253 204 196 207 211 200 193 191 206 198 183 178 183 184 183 182 185 177 171 176 183 190 193 196 189 170 168 147 154 160 164 167 172 178 185 184 179 179 163 162 147 134 122 122 129 138 132 125 129 132
170 158 177 166 186 186 209 268 116 191 226 39 41 13 98 147 94 189 248 286 305 333 295 163 192 252 267 65 36 166 202 205 229 244 252 258 110 116 183 133 106 121 167 187 193 197 182 181 183 183 180 181 179 177 173 175 181 192 196 198 185 170 160 161 164 166 175 181 177 178 180 179 178 136 126 119 120 126 134 126 132 139 137 137 124 130
37 91 191 190 178 203 94 56 356 201 219 135 139 82 86 86 87 139 281 283 295 292 268 159 178 270 285 264 160 164 202 197 230 236 242 140 101 106 100 96 127 142 143 176 184 180 177 178 178 182 174 176 179 177 173 172 178 193 199 192 180 174 166 164 168 173 180 185 182 188 188 182 150 120 123 133 139 140 148 137 147 142 145 142 139 133
64 206 342 282 214 49 97 65 27 39 59 130 152 109 115 128 159 177 268 269 286 251 264 159 178 217 290 282 165 156 195 209 189 200 153 101 112 106 99 123 139 140 136 147 155 158 162 168 172 176 177 178 175 175 174 174 185 196 201 198 182 178 165 163 171 177 183 188 189 194 191 192 167 151 147 145 150 152 157 157 158 156 153 152 150 156
145 114 177 109 74 127 108 86 51 2 139 162 156 174 170 220 171 226 211 153 233 258 102 338 285 221 238 273 152 146 180 314 168 154 171 123 103 107 127 128 126 123 129 142 148 153 157 160 171 177 180 180 179 177 179 178 191 200 201 198 183 176 171 168 174 178 184 186 187 185 186 190 167 161 167 170 174 175 173 167 161 154 149 154 155 164
211 219 113 109 313 162 164 113 76 75 202 233 183 182 211 221 165 224 181 217 206 247 103 26 346 292 234 243 112 223 252 208 246 241 174 276 197 160 161 155 141 135 141 156 162 163 173 175 177 182 184 183 186 184 183 183 194 201 203 204 187 178 174 171 170 178 182 184 181 176 184 162 154 164 172 185 171 170 168 166 160 160 162 158 165 173
206 94 157 137 144 239 211 182 141 180 200 200 199 186 192 229 225 245 220 231 300 91 289 76 118 250 275 294 246 245 231 228 211 229 244 253 257 238 170 165 155 156 160 167 172 178 180 182 182 185 187 188 189 189 185 183 195 203 208 206 191 179 174 171 174 179 183 185 182 183 182 165 158 162 163 183 187 172 169 166 170 172 167 166 174 166
218 214 203 147 220 171 207 225 192 209 176 204 205 196 207 216 225 237 220 235 239 278 87 254 165 245 271 265 7 15 54 63 52 304 265 273 270 224 218 166 163 165 171 171 178 185 186 185 185 186 190 190 191 190 187 185 194 203 209 204 190 179 176 174 177 180 182 182 179 174 162 152 159 158 161 183 192 186 182 174 170 178 169 168 163 155
219 250 85 152 358 156 192 191 30 133 148 189 220 246 249 236 253 260 353 353 2 338 213 168 231 272 237 351 267 262 248 251 210 222 226 241 258 249 233 220 200 189 181 172 181 185 188 186 186 187 191 192 191 191 191 190 194 203 208 206 194 188 181 180 179 181 182 184 174 168 169 158 157 161 176 191 193 197 192 177 172 174 168 162 142 127
107 232 99 126 99 189 178 18 193 292 217 168 154 213 209 24 284 34 136 83 87 278 257 220 264 258 285 274 254 236 231 231 211 195 192 221 237 239 245 243 202 182 175 167 179 186 186 184 189 190 190 190 191 191 193 191 192 200 205 207 198 193 185 186 185 184 184 182 176 183 167 161 164 174 185 195 194 192 183 173 172 162 153 129 128 125
241 139 359 161 210 36 27 334 12 38 345 110 213 195 74 30 7 210 252 183 212 244 262 184 236 274 285 284 77 156 203 234 229 210 211 225 222 225 238 246 208 163 167 170 180 190 187 185 186 189 192 192 192 191 192 193 194 199 204 208 202 194 188 188 183 183 181 177 171 172 178 162 168 177 188 191 191 190 176 173 162 145 137 145 127 129
199 241 129 4 30 83 31 153 225 96 26 320 329 33 179 200 212 207 231 242 241 242 266 244 247 258 242 253 254 146 172 173 179 200 211 226 230 230 230 241 186 131 147 169 191 189 185 186 188 189 191 192 192 191 191 190 193 198 199 206 209 201 194 189 187 186 183 179 175 173 174 174 171 168 182 190 180 179 179 174 167 156 148 127 132 137
163 233 168 339 106 102 144 181 209 178 129 355 274 247 357 327 250 202 199 276 255 253 239 261 253 261 240 246 263 252 248 244 214 199 209 222 232 237 234 234 168 155 167 181 191 193 190 188 190 189 189 189 189 188 188 189 192 197 197 201 206 204 195 187 182 180 185 179 173 178 165 172 168 167 178 191 185 182 187 179 166 155 144 146 144 151
211 143 254 108 298 162 193 196 218 168 174 189 220 223 175 217 33 342 275 220 229 248 249 273 275 256 274 240 253 259 246 219 225 220 213 223 234 237 239 66 97 140 163 182 181 176 190 192 192 193 192 190 187 188 184 189 193 193 194 200 202 204 196 188 182 177 180 163 172 171 178 170 164 175 182 188 193 186 184 181 167 158 148 137 154 154
201 160 224 138 182 207 213 145 220 210 195 190 191 205 197 177 195 205 241 140 220 228 240 255 257 275 248 62 88 264 232 217 183 193 221 231 237 235 128 126 140 156 183 193 195 172 173 178 186 189 188 188 190 191 189 188 190 193 195 196 201 204 201 188 183 181 174 174 172 179 178 174 171 181 183 191 192 188 183 179 169 156 144 156 158 165
195 178 212 187 212 211 123 55 50 112 9 288 232 229 207 211 196 199 225 191 154 233 297 266 298 267 210 111 214 187 182 34 35 327 250 243 277 28 47 40 11 187 159 166 236 194 162 167 175 184 186 191 196 197 195 190 190 194 196 195 201 203 203 190 183 178 174 172 172 180 180 172 176 180 186 188 188 189 182 178 165 156 161 163 159 167
77 182 200 238 163 87 113 139 86 84 310 258 247 284 228 211 204 216 234 235 214 159 223 232 236 264 102 53 87 56 70 22 325 280 275 296 321 19 32 61 145 293 258 153 154 169 156 162 170 180 191 196 199 202 201 198 192 192 195 196 197 204 202 191 181 176 176 172 182 182 185 184 179 182 185 190 190 188 184 176 168 162 165 163 162 165
178 196 221 219 234 205 158 167 202 91 208 234 235 199 226 231 210 211 43 19 254 222 228 217 239 257 180 137 106 171 179 200 203 212 202 266 283 292 286 266 177 197 238 201 171 176 174 179 183 191 199 201 200 204 206 205 201 194 194 191 196 200 199 191 178 172 172 178 184 188 194 188 185 186 188 186 181 186 182 177 167 165 170 162 163 167
195 162 183 209 218 225 218 203 207 187 197 207 228 223 203 208 211 176 224 218 239 244 230 230 248 254 259 258 178 191 187 199 213 192 201 226 260 273 278 232 242 224 207 199 176 179 194 200 198 199 202 205 204 203 206 208 206 202 194 194 193 196 193 189 172 168 165 173 185 190 194 191 189 192 189 185 184 185 182 175 171 166 172 168 166 165
215 190 192 195 213 228 233 334 113 130 133 184 205 205 207 208 214 214 225 227 227 242 244 231 238 261 260 218 175 209 194 199 204 199 220 214 220 223 217 233 242 246 250 233 208 182 176 194 207 208 207 209 208 205 207 207 207 205 199 196 195 193 189 183 166 175 176 174 175 175 187 190 195 189 193 193 189 184 184 177 171 167 172 171 169 171
115 231 214 217 225 236 242 221 161 147 175 197 195 195 204 201 203 206 210 226 220 244 251 242 227 243 257 247 246 243 197 220 213 210 207 227 238 230 206 194 191 224 239 238 230 196 196 207 206 206 206 208 212 208 210 210 208 205 203 198 194 190 188 182 173 179 177 178 183 183 184 182 179 188 194 195 190 188 185 178 175 172 173 170 174 175
183 224 221 224 233 242 243 245 166 188 182 189 194 188 197 201 200 206 221 230 213 216 240 251 187 225 251 255 235 252 226 204 206 215 205 218 251 233 230 219 222 223 215 210 227 228 203 208 209 200 195 201 207 213 212 210 210 207 207 203 194 192 193 173 174 177 177 182 192 193 182 171 174 180 189 191 194 192 188 183 177 175 174 176 177 174
159 241 233 222 234 238 242 241 203 202 209 198 195 197 195 196 202 207 219 221 220 229 241 254 256 245 253 259 246 256 257 230 225 221 241 253 256 252 253 250 233 212 221 222 220 211 215 217 209 186 191 196 203 210 210 210 209 206 202 201 196 193 192 168 182 181 183 194 194 188 180 177 182 187 188 192 195 191 186 183 181 178 178 176 172 172
187 223 220 224 244 243 244 246 244 233 231 236 220 216 206 204 206 205 212 220 223 236 242 252 259 262 254 259 263 257 248 262 256 250 258 264 268 262 258 257 256 253 249 243 253 251 240 215 190 182 190 205 206 206 209 211 210 205 206 204 198 196 189 175 183 187 187 193 182 185 181 180 184 189 195 198 196 193 190 190 184 178 174 178 179 179
176 250 49 178 232 249 244 235 232 219 251 251 245 233 227 223 220 203 214 204 205 218 229 241 252 254 258 142 239 238 229 227 240 253 257 259 260 262 263 259 259 263 260 254 254 254 251 232 210 196 202 207 207 204 203 206 205 200 207 200 198 193 179 181 186 189 191 189 178 187 186 185 180 188 197 195 196 191 186 183 182 184 180 180 179 179
187 188 212 162 227 240 256 208 159 148 78 261 247 236 228 217 225 213 211 213 213 208 223 226 236 243 259 258 234 229 236 245 253 256 251 251 258 261 263 266 266 264 260 259 259 257 250 241 229 219 213 203 199 200 207 203 197 205 204 196 196 176 181 185 187 192 192 193 184 193 194 189 190 193 193 197 195 190 184 185 185 189 185 187 184 171
168 217 228 188 238 245 252 119 121 131 217 228 238 253 195 223 208 199 215 218 219 208 224 229 248 264 265 251 256 258 253 253 257 259 254 255 260 262 261 264 265 266 271 273 267 261 256 253 241 228 222 217 212 213 213 198 207 209 193 190 185 186 188 186 193 195 198 196 195 194 194 193 193 193 195 193 193 193 193 188 193 191 181 179 182 188
196 201 229 211 228 228 117 120 148 218 228 239 329 66 222 222 207 212 226 227 223 223 235 247 252 253 252 261 267 267 262 266 266 266 267 284 340 261 258 262 267 271 272 271 273 271 268 263 257 244 233 226 222 212 194 206 206 195 183 188 192 194 190 191 192 196 198 199 198 195 193 193 194 195 193 192 192 192 196 195 193 184 182 183 186 186
194 196 201 225 193 2 168 175 230 218 244 341 288 256 226 240 211 213 236 233 227 216 216 231 240 246 251 251 257 259 260 262 269 269 274 191 233 266 272 268 266 268 271 271 273 280 282 276 266 253 240 231 224 204 195 207 191 188 196 188 196 196 193 190 195 200 199 202 200 199 196 194 195 194 192 189 189 192 196 195 190 185 180 179 180 140
214 198 206 226 187 222 196 212 235 323 310 285 270 235 157 187 179 205 243 239 226 224 222 228 238 245 248 251 252 254 258 271 276 276 127 201 255 258 265 274 272 270 273 279 280 285 289 290 285 274 259 243 220 205 203 193 179 188 186 190 199 198 197 192 198 203 203 201 201 200 196 195 195 193 189 188 187 191 192 190 185 184 177 177 180 180
200 204 178 209 212 207 221 235 239 238 245 252 250 108 162 186 196 201 219 261 251 228 223 227 234 238 243 245 249 255 270 279 271 271 139 236 256 268 263 257 263 269 277 279 289 290 297 304 308 292 260 254 234 215 193 173 179 184 191 195 194 193 198 198 207 205 201 203 201 198 196 196 191 191 188 185 190 189 186 181 181 183 178 181 180 188
207 211 202 208 208 189 211 224 222 224 238 253 73 150 180 180 191 168 196 246 255 219 215 231 231 233 236 240 249 257 251 251 260 274 273 273 285 229 250 266 254 261 266 275 300 306 308 318 313 291 260 243 244 211 166 172 176 186 201 199 196 196 200 207 210 206 204 206 201 196 189 187 185 185 183 185 187 179 177 180 184 183 180 189 188 190
199 205 194 224 219 215 210 217 221 206 248 267 184 348 316 34 110 112 211 240 258 134 203 214 219 228 239 246 246 243 226 240 255 267 282 89 76 47 310 285 304 302 290 320 327 307 307 291 278 254 241 239 240 167 170 170 182 196 203 206 199 202 211 213 208 200 202 200 195 190 183 181 178 177 178 181 175 176 181 179 180 184 183 185 188 183
202 210 207 213 218 223 225 247 268 264 266 225 191 117 315 247 144 173 208 214 175 189 217 202 210 224 234 242 223 223 227 233 247 260 122 178 341 255 175 165 232 249 273 286 288 354 291 270 249 259 254 248 217 172 174 175 189 207 209 203 202 215 217 204 192 196 198 194 186 180 174 170 173 173 175 175 179 179 179 178 179 176 178 178 177 170
204 204 214 212 221 220 223 236 243 295 252 147 29 136 176 112 199 214 220 180 150 216 234 189 200 219 220 228 215 223 236 234 242 260 272 270 264 282 273 250 251 251 234 232 265 294 279 277 274 269 268 239 173 175 177 182 203 215 210 208 221 222 191 178 191 189 189 173 169 164 160 159 160 166 171 171 166 169 175 174 167 170 169 161 163 164
176 181 189 197 203 228 209 234 228 238 256 136 117 37 323 204 229 191 159 279 206 210 176 211 220 235 209 235 230 234 253 260 262 274 286 286 290 286 291 292 290 293 299 293 274 199 214 274 265 261 260 232 182 170 188 186 211 218 212 221 221 179 161 171 172 174 170 166 159 156 159 161 163 163 159 160 162 163 169 163 161 159 160 162 159 160
158 179 186 218 178 198 195 210 217 222 135 157 158 184 200 213 195 145 166 219 152 354 11 333 294 344 345 315 305 300 288 292 297 283 282 284 283 287 285 285 285 288 280 268 256 272 187 252 266 266 240 204 197 191 189 191 213 216 218 227 174 159 156 161 164 163 167 166 161 153 157 156 156 154 154 157 157 161 161 162 160 155 162 164 162 148
168 213 185 223 159 202 202 221 228 189 167 197 200 211 202 220 227 81 53 106 101 92 59 28 24 9 343 327 305 297 300 293 290 302 304 296 303 300 299 294 290 285 283 292 301 202 220 257 269 265 241 216 206 202 200 202 209 217 222 217 157 162 163 161 160 166 174 167 157 154 151 150 154 155 155 157 158 161 149 152 150 142 150 155 165 164
174 217 196 243 224 217 250 252 36 108 179 216 238 251 10 355 27 46 32 9 62 132 169 193 218 215 218 199 247 296 278 286 296 300 302 303 299 295 291 284 266 246 253 270 281 263 250 266 266 266 261 247 213 220 206 207 201 216 219 180 166 159 160 155 156 167 170 162 153 151 145 146 150 154 156 157 165 165 144 140 144 145 138 136 137 153
236 92 237 233 180 212 243 205 237 238 155 218 239 272 339 237 133 77 73 131 270 232 220 208 223 233 229 206 223 252 269 270 275 277 280 288 289 292 298 300 300 287 265 265 251 249 253 243 258 255 250 253 217 211 213 204 216 211 184 146 143 153 150 153 160 161 161 157 152 149 154 152 138 135 141 154 143 119 133 138 137 148 160 163 164 170
235 98 239 231 251 226 273 15 341 48 247 250 223 248 268 287 265 198 181 213 234 257 249 259 241 245 202 224 236 249 268 276 275 275 278 278 281 289 294 293 293 297 260 211 230 197 237 239 245 251 244 243 227 208 199 197 204 178 144 145 143 140 145 155 163 162 161 156 152 147 154 158 149 147 135 128 129 137 133 137 164 160 165 175 176 172
71 26 211 128 222 306 305 282 270 283 237 237 231 259 275 265 265 281 255 214 209 273 279 268 230 250 244 247 244 237 255 268 266 270 276 280 280 279 278 278 279 278 280 266 226 199 222 231 241 244 239 242 194 174 184 188 153 139 145 142 139 145 149 156 154 152 152 152 154 156 157 142 143 136 126 126 120 135 157 163 166 166 167 177 180 181
152 236 239 272 282 246 235 260 306 267 261 226 17 293 286 261 236 248 270 278 261 258 267 279 287 266 241 249 250 246 252 264 270 266 269 271 271 271 274 277 276 272 267 241 205 208 229 229 229 231 225 216 145 154 169 135 115 126 142 143 148 151 154 153 150 150 151 152 150 136 138 126 126 108 101 125 126 105 70 56 63 90 171 168 129 114
233 234 219 223 223 253 291 314 317 261 270 269 281 285 273 253 169 212 234 251 264 255 248 258 274 287 281 258 205 225 243 253 265 266 268 270 268 264 261 270 275 275 267 237 234 238 224 225 213 210 201 169 137 151 147 136 132 136 141 149 156 156 150 149 148 138 128 148 143 151 148 124 133 149 141 142 139 132 124 117 67 57 68 99 109 113